Time,TemperatureF,DewpointF,PressureIn,WindDirection,WindDirectionDegrees,WindSpeedMPH,WindSpeedGustMPH,Humidity,HourlyPrecipIn,Conditions,Clouds,dailyrainin,SoftwareType,DateUTC
2013-02-24 00:22:00,45.0,42.0,29.97,SE,140,3.0,-999.0,90,0.00,,,-99.99,,2013-02-24 08:22:00,
2013-02-24 00:31:00,45.0,42.0,29.97,SE,140,3.0,-999.0,90,0.00,,,-99.99,,2013-02-24 08:31:00,
2013-02-24 00:41:00,45.0,42.0,29.97,SE,140,3.0,-999.0,90,0.00,,,-99.99,,2013-02-24 08:41:00,
2013-02-24 00:53:00,45.0,42.0,29.97,SE,140,3.0,-999.0,90,0.00,,,-99.99,,2013-02-24 08:53:00,
2013-02-24 01:21:00,43.0,40.0,29.99,East,90,3.0,-999.0,90,0.00,,,-99.99,,2013-02-24 09:21:00,
2013-02-24 01:31:00,43.0,40.0,29.99,East,90,3.0,-999.0,90,0.00,,,-99.99,,2013-02-24 09:31:00,
2013-02-24 01:41:00,43.0,40.0,29.99,East,90,3.0,-999.0,90,0.00,,,-99.99,,2013-02-24 09:41:00,
2013-02-24 01:51:00,43.0,40.0,29.99,East,90,3.0,-999.0,90,0.00,,,-99.99,,2013-02-24 09:51:00,
2013-02-24 02:21:00,43.0,41.0,29.97,North,0,0.0,-999.0,91,0.00,,,-99.99,,2013-02-24 10:21:00,
2013-02-24 02:31:00,43.0,41.0,29.97,North,0,0.0,-999.0,91,0.00,,,-99.99,,2013-02-24 10:31:00,
2013-02-24 02:41:00,43.0,41.0,29.97,North,0,0.0,-999.0,91,0.00,,,-99.99,,2013-02-24 10:41:00,
2013-02-24 02:51:00,43.0,41.0,29.97,North,0,0.0,-999.0,91,0.00,,,-99.99,,2013-02-24 10:51:00,
2013-02-24 03:21:00,42.0,40.0,29.97,North,0,0.0,-999.0,92,0.00,,,-99.99,,2013-02-24 11:21:00,
2013-02-24 03:32:00,42.0,40.0,29.97,North,0,0.0,-999.0,92,0.00,,,-99.99,,2013-02-24 11:32:00,
2013-02-24 03:41:00,42.0,40.0,29.97,North,0,0.0,-999.0,92,0.00,,,-99.99,,2013-02-24 11:41:00,
2013-02-24 03:52:00,42.0,40.0,29.97,North,0,0.0,-999.0,92,0.00,,,-99.99,,2013-02-24 11:52:00,
2013-02-24 03:55:00,45.0,43.0,29.97,North,0,0.0,-999.0,93,0.00,,,-99.99,,2013-02-24 11:55:00,
2013-02-24 04:21:00,45.0,43.0,29.97,North,0,0.0,-999.0,93,0.00,,,-99.99,,2013-02-24 12:21:00,
2013-02-24 04:32:00,45.0,43.0,29.97,North,0,0.0,-999.0,93,0.00,,,-99.99,,2013-02-24 12:32:00,
2013-02-24 04:46:00,45.0,43.0,29.97,North,0,0.0,-999.0,93,0.00,,,-99.99,,2013-02-24 12:46:00,
2013-02-24 05:25:00,43.0,40.0,29.99,North,0,0.0,-999.0,88,0.00,,,-99.99,,2013-02-24 13:25:00,
2013-02-24 05:33:00,43.0,40.0,29.99,North,0,0.0,-999.0,88,0.00,,,-99.99,,2013-02-24 13:33:00,
2013-02-24 05:43:00,43.0,40.0,29.99,North,0,0.0,-999.0,88,0.00,,,-99.99,,2013-02-24 13:43:00,
2013-02-24 05:52:00,43.0,40.0,29.99,North,0,0.0,-999.0,88,0.00,,,-99.99,,2013-02-24 13:52:00,
2013-02-24 06:23:00,43.0,41.0,30.00,North,0,0.0,-999.0,93,0.01,,,-99.99,,2013-02-24 14:23:00,
2013-02-24 06:32:00,43.0,41.0,30.00,North,0,0.0,-999.0,93,0.01,,,-99.99,,2013-02-24 14:32:00,
2013-02-24 06:43:00,43.0,41.0,30.00,North,0,0.0,-999.0,93,0.01,,,-99.99,,2013-02-24 14:43:00,
2013-02-24 06:53:00,43.0,41.0,30.00,North,0,0.0,-999.0,93,0.01,,,-99.99,,2013-02-24 14:53:00,
2013-02-24 07:22:00,43.0,41.0,30.03,North,0,0.0,-999.0,91,0.00,,,-99.99,,2013-02-24 15:22:00,
2013-02-24 07:32:00,43.0,41.0,30.03,North,0,0.0,-999.0,91,0.00,,,-99.99,,2013-02-24 15:32:00,
2013-02-24 07:42:00,43.0,41.0,30.03,North,0,0.0,-999.0,91,0.00,,,-99.99,,2013-02-24 15:42:00,
2013-02-24 07:52:00,43.0,41.0,30.03,North,0,0.0,-999.0,91,0.00,,,-99.99,,2013-02-24 15:52:00,
2013-02-24 08:21:00,49.0,45.0,30.05,SE,140,3.0,-999.0,86,0.00,,,-99.99,,2013-02-24 16:21:00,
2013-02-24 08:31:00,49.0,45.0,30.05,SE,140,3.0,-999.0,86,0.00,,,-99.99,,2013-02-24 16:31:00,
2013-02-24 08:41:00,49.0,45.0,30.05,SE,140,3.0,-999.0,86,0.00,,,-99.99,,2013-02-24 16:41:00,
2013-02-24 08:52:00,49.0,45.0,30.05,SE,140,3.0,-999.0,86,0.00,,,-99.99,,2013-02-24 16:52:00,
2013-02-24 09:21:00,53.0,46.0,30.07,West,260,3.0,-999.0,76,0.00,,,-99.99,,2013-02-24 17:21:00,
2013-02-24 09:32:00,53.0,46.0,30.07,West,260,3.0,-999.0,76,0.00,,,-99.99,,2013-02-24 17:32:00,
2013-02-24 09:41:00,53.0,46.0,30.07,West,260,3.0,-999.0,76,0.00,,,-99.99,,2013-02-24 17:41:00,
2013-02-24 09:52:00,53.0,46.0,30.07,West,260,3.0,-999.0,76,0.00,,,-99.99,,2013-02-24 17:52:00,
2013-02-24 10:22:00,56.0,36.0,30.08,WNW,300,4.0,-999.0,46,0.00,,,-99.99,,2013-02-24 18:22:00,
2013-02-24 10:31:00,56.0,36.0,30.08,WNW,300,4.0,-999.0,46,0.00,,,-99.99,,2013-02-24 18:31:00,
2013-02-24 10:42:00,56.0,36.0,30.08,WNW,300,4.0,-999.0,46,0.00,,,-99.99,,2013-02-24 18:42:00,
2013-02-24 10:51:00,56.0,36.0,30.08,WNW,300,4.0,-999.0,46,0.00,,,-99.99,,2013-02-24 18:51:00,
2013-02-24 11:22:00,58.0,42.0,30.09,WSW,250,6.0,-999.0,55,0.00,,,-99.99,,2013-02-24 19:22:00,
2013-02-24 11:32:00,58.0,42.0,30.09,WSW,250,6.0,-999.0,55,0.00,,,-99.99,,2013-02-24 19:32:00,
2013-02-24 12:21:00,65.0,15.0,30.08,East,80,11.0,-999.0,14,0.00,,,-99.99,,2013-02-24 20:21:00,
2013-02-24 12:31:00,65.0,15.0,30.08,East,80,11.0,-999.0,14,0.00,,,-99.99,,2013-02-24 20:31:00,
2013-02-24 12:41:00,65.0,15.0,30.08,East,80,11.0,-999.0,14,0.00,,,-99.99,,2013-02-24 20:41:00,
2013-02-24 12:52:00,65.0,15.0,30.08,East,80,11.0,-999.0,14,0.00,,,-99.99,,2013-02-24 20:52:00,
2013-02-24 13:21:00,67.0,15.0,30.06,East,90,5.0,-999.0,13,0.00,,,-99.99,,2013-02-24 21:21:00,
2013-02-24 13:32:00,67.0,15.0,30.06,East,90,5.0,-999.0,13,0.00,,,-99.99,,2013-02-24 21:32:00,
2013-02-24 13:41:00,67.0,15.0,30.06,East,90,5.0,-999.0,13,0.00,,,-99.99,,2013-02-24 21:41:00,
2013-02-24 13:52:00,67.0,15.0,30.06,East,90,5.0,-999.0,13,0.00,,,-99.99,,2013-02-24 21:52:00,
2013-02-24 14:21:00,68.0,12.0,30.05,NNE,20,3.0,-999.0,11,0.00,,,-99.99,,2013-02-24 22:21:00,
2013-02-24 14:31:00,68.0,12.0,30.05,NNE,20,3.0,-999.0,11,0.00,,,-99.99,,2013-02-24 22:31:00,
2013-02-24 14:41:00,68.0,12.0,30.05,NNE,20,3.0,-999.0,11,0.00,,,-99.99,,2013-02-24 22:41:00,
2013-02-24 14:51:00,68.0,12.0,30.05,NNE,20,3.0,-999.0,11,0.00,,,-99.99,,2013-02-24 22:51:00,
2013-02-24 15:21:00,69.0,8.0,30.05,NW,320,2.0,-999.0,9,0.00,,,-99.99,,2013-02-24 23:21:00,
2013-02-24 15:31:00,69.0,8.0,30.05,NW,320,2.0,-999.0,9,0.00,,,-99.99,,2013-02-24 23:31:00,
2013-02-24 15:41:00,69.0,8.0,30.05,NW,320,2.0,-999.0,9,0.00,,,-99.99,,2013-02-24 23:41:00,
2013-02-24 15:52:00,69.0,8.0,30.05,NW,320,2.0,-999.0,9,0.00,,,-99.99,,2013-02-24 23:52:00,
2013-02-24 16:21:00,64.0,27.0,30.05,SW,220,1.0,-999.0,25,0.00,,,-99.99,,2013-02-25 00:21:00,
2013-02-24 16:31:00,64.0,27.0,30.05,SW,220,1.0,-999.0,25,0.00,,,-99.99,,2013-02-25 00:31:00,
2013-02-24 16:41:00,64.0,27.0,30.05,SW,220,1.0,-999.0,25,0.00,,,-99.99,,2013-02-25 00:41:00,
2013-02-24 16:51:00,64.0,27.0,30.05,SW,220,1.0,-999.0,25,0.00,,,-99.99,,2013-02-25 00:51:00,
2013-02-24 17:21:00,63.0,32.0,30.07,West,280,2.0,-999.0,31,0.00,,,-99.99,,2013-02-25 01:21:00,
2013-02-24 17:31:00,63.0,32.0,30.07,West,280,2.0,-999.0,31,0.00,,,-99.99,,2013-02-25 01:31:00,
2013-02-24 17:42:00,63.0,32.0,30.07,West,280,2.0,-999.0,31,0.00,,,-99.99,,2013-02-25 01:42:00,
2013-02-24 17:51:00,63.0,32.0,30.07,West,280,2.0,-999.0,31,0.00,,,-99.99,,2013-02-25 01:51:00,
2013-02-24 18:21:00,59.0,43.0,30.09,WNW,290,2.0,-999.0,56,0.00,,,-99.99,,2013-02-25 02:21:00,
2013-02-24 18:31:00,59.0,43.0,30.09,WNW,290,2.0,-999.0,56,0.00,,,-99.99,,2013-02-25 02:31:00,
2013-02-24 19:21:00,56.0,47.0,30.11,WSW,240,1.0,-999.0,71,0.00,,,-99.99,,2013-02-25 03:21:00,
2013-02-24 19:31:00,56.0,47.0,30.11,WSW,240,1.0,-999.0,71,0.00,,,-99.99,,2013-02-25 03:31:00,
2013-02-24 20:21:00,54.0,44.0,30.13,North,0,0.0,-999.0,69,0.00,,,-99.99,,2013-02-25 04:21:00,
2013-02-24 20:31:00,54.0,44.0,30.13,North,0,0.0,-999.0,69,0.00,,,-99.99,,2013-02-25 04:31:00,
2013-02-24 20:41:00,54.0,44.0,30.13,North,0,0.0,-999.0,69,0.00,,,-99.99,,2013-02-25 04:41:00,
2013-02-24 20:51:00,54.0,44.0,30.13,North,0,0.0,-999.0,69,0.00,,,-99.99,,2013-02-25 04:51:00,
2013-02-24 21:22:00,53.0,42.0,30.15,NW,320,3.0,-999.0,65,0.00,,,-99.99,,2013-02-25 05:22:00,
2013-02-24 21:31:00,53.0,42.0,30.15,NW,320,3.0,-999.0,65,0.00,,,-99.99,,2013-02-25 05:31:00,
2013-02-24 21:41:00,53.0,42.0,30.15,NW,320,3.0,-999.0,65,0.00,,,-99.99,,2013-02-25 05:41:00,
2013-02-24 21:52:00,53.0,42.0,30.15,NW,320,3.0,-999.0,65,0.00,,,-99.99,,2013-02-25 05:52:00,
2013-02-24 22:21:00,54.0,26.0,30.17,North,360,3.0,-999.0,34,0.00,,,-99.99,,2013-02-25 06:21:00,
2013-02-24 22:31:00,54.0,26.0,30.17,North,360,3.0,-999.0,34,0.00,,,-99.99,,2013-02-25 06:31:00,
2013-02-24 22:41:00,54.0,26.0,30.17,North,360,3.0,-999.0,34,0.00,,,-99.99,,2013-02-25 06:41:00,
2013-02-24 22:51:00,54.0,26.0,30.17,North,360,3.0,-999.0,34,0.00,,,-99.99,,2013-02-25 06:51:00,
2013-02-24 23:21:00,48.0,28.0,30.18,East,80,1.0,-999.0,46,0.00,,,-99.99,,2013-02-25 07:21:00,
2013-02-24 23:31:00,48.0,28.0,30.18,East,80,1.0,-999.0,46,0.00,,,-99.99,,2013-02-25 07:31:00,
2013-02-24 23:41:00,48.0,28.0,30.18,East,80,1.0,-999.0,46,0.00,,,-99.99,,2013-02-25 07:41:00,
2013-02-24 23:51:00,48.0,28.0,30.18,East,80,1.0,-999.0,46,0.00,,,-99.99,,2013-02-25 07:51:00,